Albany, NY

9:14 AM EDT on July 21, 2017 (GMT -0400)
Albany International

Weather History for KALB - May, 2013

Change the Weather History Date:

Wednesday, May 29, 2013

  Actual Average Record
Temperature  
Mean Temperature 65 °F 62 °F  
Max Temperature 79 °F 73 °F 93 °F (1931)
Min Temperature 51 °F 51 °F 34 °F (1956)
Degree Days  
Heating Degree Days 0 4  
Month to date heating degree days 199 226  
Since 1 July heating degree days 6261 6619  
Cooling Degree Days 0 2  
Month to date cooling degree days 24 20  
Year to date cooling degree days 24 24  
Growing Degree Days 18 (Base 50)    
Moisture  
Dew Point 61 °F    
Average Humidity 84    
Maximum Humidity 100    
Minimum Humidity 67    
Precipitation  
Precipitation 1.10 in 0.12 in 2.17 in (1968)
Month to date precipitation 6.65 3.35  
Year to date precipitation 14.74 14.52  
Snow  
Snow 0.00 in 0.00 in 0.00 in ()
Month to date snowfall 0.0 0.1  
Since 1 July snowfall 51.4 60.3  
Snow Depth 0.00 in    
Sea Level Pressure  
Sea Level Pressure 30.02 in    
Wind  
Wind Speed 7 mph (South)    
Max Wind Speed 36 mph    
Max Gust Speed 53 mph    
Visibility 8 miles    
Events Fog , Rain , Thunderstorm    
T = Trace of Precipitation, MM = Missing Value Source: NWS Daily Summary

Daily Weather History Graph

Daily Weather History Graph

Search for Another Location

Airport or City:

Trip Planner

Search our weather history database for the weather conditions in past years. The results will help you decide how hot, cold, wet, or windy it might be!

Date:

Astronomy

May. 29, 2013 Rise Set
Actual Time 5:21 AM EDT 8:24 PM EDT
Civil Twilight 4:47 AM EDT 8:58 PM EDT
Nautical Twilight 4:03 AM EDT 9:42 PM EDT
Astronomical Twilight 3:12 AM EDT 10:34 PM EDT
Moon No Moon Rise 10:21 AM EDT (5/29)
Length of Visible Light 16h 11m
Length of Day
15h 03m
Waning Gibbous, 73% of the Moon is Illuminated
May 29
Waning Gibbous
May 31
Last Quarter
Jun 8
New
Jun 16
First Quarter
Jun 23
Full

Hourly Weather History & Observations

Time (EDT) Temp. Dew Point Humidity Pressure Visibility Wind Dir Wind Speed Gust Speed Precip Events Conditions
12:51 AM 57.9 °F 55.0 °F 90% 30.12 in 9.0 mi South 6.9 mph - 0.01 in Rain Light Rain
1:03 AM 57.2 °F 55.4 °F 94% 30.11 in 10.0 mi SE 5.8 mph - 0.00 in Rain Light Rain
1:35 AM 57.2 °F 55.4 °F 94% 30.10 in 8.0 mi SSE 5.8 mph - 0.02 in Rain Light Rain
1:51 AM 57.9 °F 55.9 °F 93% 30.09 in 6.0 mi SSE 5.8 mph - 0.09 in Rain Rain
2:51 AM 57.9 °F 55.9 °F 93% 30.06 in 10.0 mi SSE 8.1 mph - 0.16 in Rain Light Rain
3:18 AM 57.2 °F 55.4 °F 94% 30.05 in 10.0 mi South 6.9 mph - 0.00 in   Overcast
3:51 AM 57.9 °F 55.9 °F 93% 30.05 in 10.0 mi South 6.9 mph - 0.00 in Rain Light Rain
4:51 AM 57.9 °F 55.9 °F 93% 30.05 in 10.0 mi South 8.1 mph - 0.00 in   Overcast
5:51 AM 57.9 °F 55.9 °F 93% 30.06 in 10.0 mi South 9.2 mph - N/A   Overcast
6:51 AM 57.9 °F 55.9 °F 93% 30.06 in 10.0 mi South 8.1 mph - N/A   Overcast
7:51 AM 59.0 °F 55.9 °F 90% 30.06 in 8.0 mi South 12.7 mph - 0.00 in Rain Light Rain
8:51 AM 59.0 °F 57.0 °F 93% 30.07 in 5.0 mi South 8.1 mph - 0.00 in Rain Light Rain
9:24 AM 59.0 °F 57.2 °F 94% 30.05 in 2.5 mi SSE 9.2 mph - 0.03 in Rain Rain
9:39 AM 59.0 °F 57.2 °F 94% 30.05 in 3.0 mi South 11.5 mph 16.1 mph 0.05 in Rain Light Rain
9:51 AM 60.1 °F 57.9 °F 93% 30.05 in 3.0 mi South 9.2 mph - 0.05 in Rain Light Rain
10:51 AM 62.1 °F 57.9 °F 86% 30.00 in 7.0 mi South 15.0 mph 25.3 mph 0.00 in   Overcast
11:51 AM 63.0 °F 59.0 °F 87% 30.04 in 8.0 mi South 12.7 mph - 0.00 in   Overcast
12:34 PM 66.2 °F 60.8 °F 83% 30.01 in 9.0 mi SSE 9.2 mph - N/A   Mostly Cloudy
12:51 PM 66.9 °F 61.0 °F 81% 30.01 in 9.0 mi SSE 11.5 mph 19.6 mph N/A   Mostly Cloudy
1:51 PM 72.0 °F 64.0 °F 76% 29.99 in 10.0 mi SSE 9.2 mph - N/A   Mostly Cloudy
2:51 PM 73.9 °F 64.0 °F 71% 30.00 in 10.0 mi SSE 5.8 mph - N/A   Mostly Cloudy
3:51 PM 75.0 °F 64.9 °F 71% 29.99 in 10.0 mi SSE 6.9 mph - N/A   Mostly Cloudy
4:51 PM 75.9 °F 66.0 °F 71% 29.97 in 10.0 mi South 8.1 mph - N/A   Mostly Cloudy
5:51 PM 78.1 °F 66.9 °F 68% 29.94 in 10.0 mi South 8.1 mph - N/A   Mostly Cloudy
6:51 PM 75.9 °F 66.9 °F 74% 29.92 in 10.0 mi SSE 5.8 mph - 0.00 in Rain Light Rain
6:58 PM 75.2 °F 68.0 °F 78% 29.91 in 10.0 mi SE 6.9 mph - 0.00 in Rain , Thunderstorm Light Thunderstorms and Rain
7:12 PM 75.2 °F 69.8 °F 83% 30.00 in 0.5 mi WSW 29.9 mph 48.3 mph 0.02 in Rain , Thunderstorm Light Thunderstorms and Rain
7:30 PM 66.2 °F 64.4 °F 94% 29.98 in 0.2 mi NW 26.5 mph 52.9 mph 0.74 in Fog , Rain , Thunderstorm Light Thunderstorms and Rain
7:33 PM 68.0 °F 64.4 °F 88% 29.98 in 5.0 mi NNW 27.6 mph 42.6 mph 0.75 in Rain , Thunderstorm Light Thunderstorms and Rain
7:51 PM 66.9 °F 64.0 °F 90% 29.98 in 10.0 mi Variable 4.6 mph 18.4 mph 0.76 in Rain , Thunderstorm Light Thunderstorms and Rain
8:51 PM 66.9 °F 64.9 °F 93% 29.99 in 10.0 mi South 5.8 mph - 0.04 in Thunderstorm Thunderstorm
9:21 PM 66.2 °F 62.6 °F 88% 30.01 in 10.0 mi Variable 4.6 mph - N/A   Mostly Cloudy
9:51 PM 64.0 °F 63.0 °F 96% 30.02 in 10.0 mi SSW 5.8 mph - N/A   Scattered Clouds
10:51 PM 62.6 °F 62.6 °F 100% 30.03 in 10.0 mi Calm Calm - N/A   Scattered Clouds
11:51 PM 62.6 °F 62.6 °F 100% 30.04 in 10.0 mi Calm Calm - N/A   Scattered Clouds